Wind_Speed
22 22 22 22 21 22 23 23 24 25 25 25 26 26 26 26 27 27 28 29 30 30 31 32 32 33 34 35 36 37 38 39 40 41 41 42 42 42
21 21 22 21 21 21 22 22 23 23 23 23 25 26 26 26 26 27 27 27 28 29 30 31 32 33 34 34 36 37 38 39 40 41 42 42 43 43
21 21 22 21 22 22 22 22 23 23 23 23 24 25 25 24 24 25 26 27 27 28 30 31 32 33 34 34 35 36 38 39 39 40 42 42 43 44
21 21 21 22 22 22 21 22 22 22 22 23 23 24 24 24 24 25 25 25 25 26 27 29 30 31 33 33 34 36 37 38 39 40 41 42 43 45
20 21 22 22 22 22 21 21 21 21 21 22 22 22 23 22 23 23 24 24 24 24 25 27 28 30 31 32 33 35 36 37 38 39 41 42 43 44
20 21 21 22 22 21 20 20 20 20 21 21 21 22 22 22 22 23 23 23 24 24 24 25 26 28 29 30 31 32 34 35 36 37 38 40 42 42
21 21 21 21 22 21 20 19 20 20 21 21 21 22 22 22 23 23 22 23 23 23 23 23 24 25 27 28 29 30 31 33 34 35 37 38 39 41
20 21 21 21 21 20 20 20 21 21 22 22 22 22 22 22 23 22 22 22 22 22 22 22 23 24 25 27 28 29 30 31 32 34 36 37 38 38
20 20 20 20 20 20 20 21 21 21 21 21 21 22 22 22 22 22 22 21 21 21 22 21 22 22 23 25 25 27 29 30 31 33 34 35 36 37
20 20 20 20 21 20 20 20 20 20 21 21 21 21 21 21 22 22 22 22 22 22 22 22 22 22 23 23 24 25 27 29 30 31 33 35 36 36
19 20 20 20 20 20 20 19 19 20 21 20 20 20 21 21 21 22 22 23 22 22 22 23 22 22 23 23 24 25 26 27 28 31 32 34 35 36
19 19 19 19 19 19 19 19 20 20 20 20 20 21 21 21 21 21 22 22 22 22 22 22 22 22 22 23 24 25 25 26 27 29 30 33 35 37
19 19 18 18 17 17 18 18 19 19 19 19 19 20 21 21 20 20 21 21 22 22 22 22 22 23 23 23 23 25 25 25 26 28 28 29 31 33
18 18 17 17 17 17 17 17 18 18 18 18 19 19 20 20 20 21 21 22 22 21 22 22 22 22 23 23 23 23 23 24 25 26 27 28 29 30
18 17 17 17 17 17 17 17 17 17 17 18 19 19 19 19 19 20 20 21 21 21 21 21 21 21 22 23 22 22 22 23 23 24 25 26 28 29
16 16 16 16 16 17 17 17 17 17 17 17 18 18 19 19 19 20 20 21 21 21 21 21 21 21 21 22 22 23 23 23 23 24 24 25 26 28
16 16 17 16 16 17 17 16 17 17 17 17 17 18 19 19 19 19 19 19 20 20 20 20 20 20 20 20 21 22 22 23 23 23 23 24 25 26
16 16 16 16 16 16 17 16 17 17 17 17 18 18 18 18 18 18 19 18 18 18 18 18 19 19 20 20 20 20 21 21 21 22 22 23 23 24
16 16 16 16 16 16 17 17 17 18 17 18 18 18 18 18 17 17 17 17 17 17 18 18 18 18 18 18 18 19 19 19 20 20 21 21 22 22
16 16 16 16 16 17 17 17 17 17 17 18 18 18 18 17 17 16 17 17 17 17 17 17 17 17 17 16 17 17 17 17 18 19 19 20 21 22
16 16 16 16 17 17 17 18 17 18 18 19 18 18 17 17 17 17 17 16 16 17 17 16 16 16 16 17 16 16 17 18 18 18 18 19 20 21
16 17 17 17 17 17 18 18 18 18 19 19 18 18 18 17 17 17 16 16 17 17 16 16 16 16 16 16 16 16 16 16 16 17 17 18 19 20
17 18 18 18 18 18 18 19 19 19 19 19 19 18 18 18 17 17 16 16 16 16 16 16 16 16 16 15 15 15 15 15 14 14 15 16 16 16
Wind_Direction
287 287 287 286 285 284 282 280 280 279 280 279 277 278 278 277 276 276 275 273 268 265 262 260 260 257 255 254 253 253 253 253 252 250 248 247 247 246
290 290 288 287 287 285 283 282 282 281 281 280 279 280 279 278 278 277 276 274 269 266 264 263 261 258 257 257 257 255 254 253 252 251 250 248 247 246
290 290 289 289 288 287 284 282 282 281 281 280 281 283 282 282 281 279 276 275 273 269 266 264 263 259 257 259 259 258 256 254 253 251 250 248 247 246
291 290 292 291 290 287 284 283 282 282 282 282 284 285 287 284 282 282 280 277 275 272 268 266 264 261 258 258 259 258 257 255 254 252 250 249 248 246
295 293 293 293 292 290 287 285 284 284 285 286 287 289 290 288 284 283 281 279 277 275 272 269 267 264 261 260 260 259 258 256 255 253 251 249 248 247
297 294 293 293 293 291 289 287 287 287 287 288 290 291 291 289 288 287 285 283 282 280 277 275 272 268 264 262 261 260 258 257 256 254 252 250 249 248
300 297 296 294 295 293 291 289 288 287 288 288 289 291 291 290 291 288 285 285 285 283 280 279 276 271 267 263 261 260 259 257 256 254 253 251 250 249
301 299 297 295 295 294 293 292 290 289 288 289 291 291 292 292 292 289 286 285 285 282 280 279 277 273 271 266 264 261 260 257 256 254 252 251 250 249
301 300 299 297 297 296 295 295 291 290 289 289 288 289 290 290 290 289 287 285 283 282 280 280 278 274 273 271 268 263 261 260 258 255 252 251 249 248
304 303 301 299 300 298 299 296 293 291 290 288 287 288 289 289 288 289 288 286 284 282 282 282 280 276 274 273 270 267 264 261 259 256 254 251 249 247
309 307 305 303 302 300 299 297 297 296 292 288 287 288 289 289 289 288 288 287 285 283 282 283 281 279 276 275 274 271 268 264 261 258 257 251 248 247
313 313 311 308 306 303 301 299 298 297 295 292 289 288 288 288 289 289 290 287 285 284 282 281 279 278 278 275 273 271 270 266 263 262 258 253 250 249
315 315 313 312 311 309 306 303 301 298 296 294 292 290 290 290 288 289 290 289 286 284 282 281 278 277 277 276 273 272 270 268 265 263 260 255 252 251
316 316 315 313 313 314 311 307 305 301 298 297 295 293 291 290 289 290 289 288 287 286 284 282 279 277 277 276 275 272 270 269 266 264 259 255 254 253
320 319 318 318 316 316 316 315 313 309 305 301 300 297 295 294 293 293 293 291 289 288 287 285 283 281 278 278 277 275 274 273 270 266 262 259 256 254
324 324 324 324 325 323 322 320 318 317 314 309 307 304 301 301 300 298 295 295 291 289 290 288 286 284 283 280 280 278 277 275 273 270 265 261 257 254
331 331 332 332 333 333 331 327 325 323 320 316 313 311 308 306 304 302 300 300 298 294 291 290 289 287 286 285 282 280 278 275 271 270 267 261 258 254
337 334 336 337 336 335 333 330 328 326 324 321 319 318 317 314 311 309 306 303 302 299 297 293 292 291 289 287 283 279 278 277 272 271 268 263 258 255
342 342 341 341 338 337 336 333 331 329 328 326 325 324 321 318 315 313 312 310 308 306 303 300 297 296 295 292 288 285 282 280 274 270 268 264 260 257
347 345 345 345 344 342 340 336 334 333 333 333 330 328 326 323 319 316 316 315 313 311 309 307 304 303 300 296 291 287 284 283 277 272 268 264 261 259
354 353 352 350 349 347 344 342 341 340 339 337 336 333 331 330 326 321 320 318 316 315 313 310 307 305 304 303 299 294 288 285 282 277 274 270 264 262
1 360 358 354 351 349 347 346 345 344 343 341 339 337 334 332 330 327 324 321 320 319 318 315 312 309 308 307 304 299 294 289 285 281 277 273 270 266
2 2 1 358 353 350 348 346 346 346 346 345 343 340 337 336 335 332 328 326 323 321 318 316 315 313 311 306 302 300 297 295 292 288 281 276 273 270
Height
5727 5725 5724 5723 5721 5720 5718 5717 5717 5715 5714 5713 5711 5710 5709 5708 5707 5706 5705 5704 5703 5704 5704 5705 5706 5708 5709 5712 5714 5716 5718 5720 5722 5725 5728 5731 5734 5737
5721 5719 5718 5716 5715 5713 5712 5710 5709 5708 5707 5706 5704 5702 5701 5700 5699 5698 5697 5696 5695 5695 5695 5696 5697 5698 5700 5702 5703 5705 5707 5709 5711 5713 5716 5719 5722 5725
5715 5713 5711 5709 5708 5706 5705 5704 5702 5701 5700 5699 5697 5695 5694 5693 5691 5690 5689 5688 5687 5686 5686 5686 5687 5688 5690 5691 5693 5694 5696 5698 5699 5701 5704 5707 5710 5713
5708 5707 5705 5703 5701 5699 5698 5696 5695 5694 5693 5692 5690 5688 5687 5685 5684 5682 5681 5679 5678 5678 5677 5677 5677 5678 5680 5681 5682 5684 5685 5686 5688 5690 5692 5695 5698 5700
5702 5700 5698 5696 5694 5692 5691 5689 5688 5687 5686 5685 5683 5681 5680 5678 5676 5675 5673 5671 5670 5669 5669 5668 5668 5668 5669 5670 5672 5673 5674 5676 5677 5679 5681 5683 5686 5688
5696 5694 5692 5690 5688 5686 5685 5683 5682 5680 5679 5678 5676 5674 5673 5671 5669 5667 5666 5664 5663 5661 5660 5659 5659 5658 5659 5660 5661 5662 5663 5664 5666 5667 5669 5671 5674 5676
5690 5688 5686 5684 5682 5680 5678 5677 5675 5674 5672 5671 5669 5668 5666 5664 5662 5660 5658 5656 5655 5653 5652 5651 5650 5650 5650 5650 5651 5652 5653 5654 5655 5657 5658 5660 5662 5665
5684 5682 5680 5678 5676 5674 5672 5670 5669 5667 5666 5664 5662 5661 5659 5657 5655 5652 5651 5650 5648 5647 5645 5644 5642 5642 5642 5642 5643 5643 5644 5645 5646 5647 5648 5650 5652 5654
5678 5676 5674 5672 5669 5667 5665 5663 5662 5660 5659 5657 5655 5654 5652 5650 5648 5646 5644 5642 5641 5640 5638 5637 5635 5634 5635 5634 5634 5635 5635 5635 5636 5636 5638 5639 5641 5643
5672 5670 5667 5665 5663 5661 5659 5657 5655 5653 5651 5650 5648 5647 5645 5643 5641 5639 5637 5636 5634 5633 5632 5630 5629 5628 5627 5627 5627 5626 5626 5626 5626 5627 5628 5629 5631 5633
5667 5664 5661 5659 5657 5654 5652 5650 5648 5646 5644 5643 5641 5640 5638 5636 5634 5632 5631 5629 5627 5626 5624 5623 5622 5620 5620 5619 5618 5618 5617 5617 5617 5617 5618 5619 5621 5622
5662 5658 5655 5653 5650 5648 5646 5644 5642 5640 5637 5635 5634 5632 5631 5629 5627 5625 5623 5621 5620 5619 5617 5615 5614 5613 5612 5611 5610 5610 5609 5608 5608 5608 5608 5609 5610 5612
5656 5653 5650 5647 5645 5642 5640 5638 5635 5633 5631 5629 5627 5625 5623 5621 5620 5618 5616 5614 5612 5611 5609 5607 5606 5605 5604 5603 5602 5601 5600 5600 5599 5599 5599 5599 5600 5602
5651 5648 5645 5643 5640 5637 5635 5632 5629 5626 5624 5622 5620 5618 5616 5614 5613 5611 5609 5607 5605 5603 5602 5600 5598 5597 5596 5595 5594 5593 5592 5591 5591 5590 5590 5590 5591 5592
5647 5644 5641 5638 5635 5632 5629 5626 5623 5621 5618 5616 5614 5612 5610 5608 5605 5603 5601 5599 5597 5596 5594 5592 5590 5589 5587 5587 5586 5585 5583 5582 5582 5581 5581 5581 5582 5583
5643 5640 5637 5634 5631 5627 5624 5621 5618 5615 5613 5611 5608 5606 5603 5601 5599 5596 5594 5592 5590 5588 5586 5585 5583 5581 5579 5578 5577 5576 5574 5574 5573 5572 5572 5572 5572 5574
5640 5637 5633 5630 5627 5623 5620 5617 5614 5611 5608 5606 5603 5600 5598 5595 5592 5590 5588 5585 5583 5581 5579 5577 5575 5573 5571 5570 5569 5567 5566 5565 5564 5564 5563 5563 5564 5565
5637 5634 5631 5627 5624 5620 5617 5614 5611 5608 5605 5602 5599 5595 5593 5590 5587 5584 5582 5579 5576 5574 5572 5570 5568 5566 5564 5563 5561 5559 5558 5557 5556 5556 5555 5555 5556 5557
5635 5632 5628 5625 5621 5618 5614 5611 5608 5604 5601 5598 5594 5591 5588 5585 5582 5579 5576 5573 5571 5568 5566 5563 5561 5559 5558 5556 5554 5552 5551 5550 5549 5548 5548 5548 5549 5550
5633 5629 5626 5622 5619 5615 5612 5608 5605 5601 5597 5594 5590 5587 5583 5580 5577 5574 5571 5568 5566 5563 5560 5558 5556 5553 5551 5550 5548 5546 5544 5543 5542 5541 5541 5541 5542 5542
5631 5627 5624 5620 5616 5613 5609 5605 5601 5598 5594 5590 5586 5583 5579 5576 5572 5569 5566 5564 5561 5558 5556 5553 5551 5548 5546 5544 5542 5541 5539 5537 5536 5535 5534 5534 5535 5535
5630 5626 5622 5618 5614 5611 5607 5603 5599 5595 5591 5587 5583 5579 5575 5572 5569 5565 5562 5559 5556 5553 5551 5548 5545 5543 5541 5539 5537 5535 5534 5532 5530 5529 5529 5528 5528 5528
5629 5625 5621 5617 5612 5608 5604 5600 5596 5592 5587 5583 5579 5576 5572 5568 5565 5561 5558 5555 5552 5549 5546 5544 5541 5538 5536 5534 5532 5530 5528 5527 5525 5524 5523 5522 5522 5522